| time (UTC) | temp C | wind direction | speed KPH | gust KPH | rain 1hr cm | rain 24hr cm | rain mn cm | humidity % | barometer mb |
| 20260903031554 | 10 | 261 | 0.0 | 12.9 | 0.08 | 0.08 | 0.08 | 89 | 1021.2 |
| 20260903030104 | 9 | 113 | 6.4 | 9.7 | 0.08 | 0.08 | 0.08 | 90 | 1020.9 |
| 20260903024601 | 7 | 286 | 6.4 | 11.3 | 0.00 | 0.00 | 0.00 | 89 | 1021.1 |
| 20260903023054 | 7 | 0 | 0.0 | 1.6 | 0.00 | 0.00 | 0.00 | 88 | 1020.7 |
| 20260903021552 | 7 | 0 | 1.6 | 6.4 | 0.00 | 0.00 | 0.00 | 88 | 1020.7 |
| 20260903020056 | 7 | 260 | 0.0 | 4.8 | 0.00 | 0.00 | 0.00 | 89 | 1020.8 |
| 20260903014557 | 6 | 0 | 0.0 | 4.8 | 0.00 | 0.00 | 0.00 | 88 | 1020.8 |
| 20260903013053 | 6 | 0 | 0.0 | 0.0 | 0.00 | 0.00 | 0.00 | 88 | 1020.9 |
| 20260903011557 | 6 | 259 | 3.2 | 4.8 | 0.00 | 0.00 | 0.00 | 87 | 1021.1 |
| 20260903010104 | 6 | 0 | 0.0 | 1.6 | 0.00 | 0.00 | 0.00 | 87 | 1021.3 |
| 20260903004619 | 6 | 0 | 0.0 | 4.8 | 0.00 | 0.00 | 0.00 | 87 | 1021.4 |
| 20260903003048 | 7 | 0 | 0.0 | 3.2 | 0.00 | 0.00 | 0.00 | 87 | 1021.5 |
| 20260903001555 | 7 | 259 | 3.2 | 4.8 | 0.00 | 0.00 | 0.00 | 87 | 1021.5 |
| 20260903000052 | 7 | 259 | 3.2 | 6.4 | 0.00 | 0.00 | 0.00 | 86 | 1021.4 |
| 20260902234549 | 8 | 0 | 0.0 | 4.8 | 0.00 | 0.00 | 0.00 | 86 | 1021.5 |
| 20260902233102 | 8 | 0 | 0.0 | 3.2 | 0.00 | 0.00 | 0.00 | 86 | 1021.5 |
| 20260902231552 | 8 | 0 | 0.0 | 3.2 | 0.00 | 0.00 | 0.00 | 86 | 1021.7 |
| 20260902230050 | 8 | 0 | 0.0 | 0.0 | 0.00 | 0.00 | 0.00 | 86 | 1021.7 |
| 20260902224554 | 8 | 0 | 0.0 | 1.6 | 0.00 | 0.00 | 0.00 | 86 | 1021.9 |
| 20260902223115 | 8 | 0 | 0.0 | 3.2 | 0.00 | 0.00 | 0.00 | 85 | 1021.8 |
| 20260902221554 | 8 | 0 | 0.0 | 3.2 | 0.00 | 0.00 | 0.00 | 85 | 1021.9 |
| 20260902220057 | 8 | 0 | 0.0 | 3.2 | 0.00 | 0.00 | 0.00 | 85 | 1022.0 |
| 20260902214604 | 8 | 0 | 0.0 | 3.2 | 0.00 | 0.00 | 0.00 | 84 | 1021.9 |
| 20260902213100 | 8 | 259 | 3.2 | 4.8 | 0.00 | 0.00 | 0.00 | 83 | 1021.9 |
| 20260902211556 | 10 | 0 | 0.0 | 0.0 | 0.00 | 0.00 | 0.00 | 83 | 1021.7 |
| 20260902210054 | 10 | 0 | 0.0 | 0.0 | 0.00 | 0.00 | 0.00 | 82 | 1021.8 |
| 20260902204637 | 10 | 0 | 0.0 | 0.0 | 0.00 | 0.00 | 0.00 | 82 | 1021.8 |
| 20260902203100 | 11 | 259 | 0.0 | 3.2 | 0.00 | 0.00 | 0.00 | 82 | 1021.6 |
| 20260902201554 | 11 | 0 | 0.0 | 3.2 | 0.00 | 0.00 | 0.00 | 82 | 1021.7 |
| 20260902200055 | 11 | 259 | 0.0 | 3.2 | 0.00 | 0.00 | 0.00 | 81 | 1021.7 |
| 20260902194549 | 12 | 259 | 1.6 | 4.8 | 0.00 | 0.00 | 0.00 | 82 | 1021.6 |
| 20260902193057 | 12 | 259 | 3.2 | 9.7 | 0.00 | 0.00 | 0.00 | 81 | 1021.8 |
| 20260902191553 | 12 | 254 | 1.6 | 6.4 | 0.00 | 0.00 | 0.00 | 79 | 1021.8 |
| 20260902190055 | 13 | 246 | 1.6 | 4.8 | 0.00 | 0.00 | 0.00 | 78 | 1021.8 |
| 20260902184548 | 13 | 246 | 0.0 | 4.8 | 0.00 | 0.00 | 0.00 | 78 | 1021.8 |
| 20260902183111 | 13 | 244 | 3.2 | 6.4 | 0.00 | 0.00 | 0.00 | 78 | 1021.7 |
| 20260902181602 | 14 | 244 | 1.6 | 6.4 | 0.00 | 0.00 | 0.00 | 75 | 1021.8 |
| 20260902180051 | 15 | 305 | 6.4 | 8.0 | 0.00 | 0.00 | 0.00 | 74 | 1021.6 |
| 20260902174551 | 15 | 303 | 4.8 | 8.0 | 0.00 | 0.00 | 0.00 | 71 | 1021.3 |
| 20260902173104 | 17 | 302 | 3.2 | 6.4 | 0.00 | 0.00 | 0.00 | 66 | 1021.3 |
| 20260902171606 | 18 | 57 | 6.4 | 9.7 | 0.00 | 0.00 | 0.00 | 63 | 1021.0 |
| 20260902170056 | 19 | 24 | 6.4 | 11.3 | 0.00 | 0.00 | 0.00 | 62 | 1021.1 |
| 20260902164602 | 20 | 50 | 6.4 | 14.5 | 0.00 | 0.00 | 0.00 | 56 | 1021.1 |
| 20260902163051 | 20 | 332 | 4.8 | 8.0 | 0.00 | 0.00 | 0.00 | 57 | 1021.1 |
| 20260902161551 | 20 | 58 | 3.2 | 8.0 | 0.00 | 0.00 | 0.00 | 55 | 1020.9 |
| 20260902160056 | 20 | 41 | 4.8 | 9.7 | 0.00 | 0.00 | 0.00 | 54 | 1021.1 |
| 20260902154555 | 20 | 81 | 8.0 | 14.5 | 0.00 | 0.00 | 0.00 | 52 | 1021.0 |
| 20260902153059 | 21 | 88 | 8.0 | 16.1 | 0.00 | 0.00 | 0.00 | 50 | 1021.0 |
| 20260902151549 | 21 | 32 | 6.4 | 16.1 | 0.00 | 0.00 | 0.00 | 48 | 1021.1 |
| 20260902144552 | 21 | 360 | 12.9 | 19.3 | 0.00 | 0.00 | 0.00 | 47 | 1021.1 |
| 20260902143053 | 22 | 46 | 4.8 | 16.1 | 0.00 | 0.00 | 0.00 | 45 | 1021.1 |
| 20260902141549 | 23 | 242 | 8.0 | 24.1 | 0.00 | 0.00 | 0.00 | 38 | 1021.0 |
| 20260902140100 | 22 | 232 | 9.7 | 20.9 | 0.00 | 0.00 | 0.00 | 40 | 1021.0 |
| 20260902134554 | 23 | 238 | 16.1 | 30.6 | 0.00 | 0.00 | 0.00 | 37 | 1021.1 |
| 20260902133105 | 23 | 249 | 12.9 | 24.1 | 0.00 | 0.00 | 0.00 | 36 | 1021.1 |
| 20260902131549 | 23 | 259 | 14.5 | 22.5 | 0.00 | 0.00 | 0.00 | 41 | 1021.1 |
| 20260902124553 | 24 | 294 | 12.9 | 24.1 | 0.00 | 0.00 | 0.00 | 38 | 1021.3 |
| 20260902123053 | 24 | 263 | 11.3 | 22.5 | 0.00 | 0.00 | 0.00 | 41 | 1021.5 |
| 20260902121558 | 23 | 224 | 6.4 | 27.4 | 0.00 | 0.00 | 0.00 | 41 | 1021.6 |
| 20260902120057 | 23 | 302 | 17.7 | 25.7 | 0.00 | 0.00 | 0.00 | 43 | 1021.8 |
| 20260902114554 | 21 | 288 | 12.9 | 22.5 | 0.00 | 0.00 | 0.00 | 49 | 1021.9 |
| 20260902113049 | 21 | 352 | 1.6 | 11.3 | 0.00 | 0.00 | 0.00 | 47 | 1021.9 |
| 20260902111551 | 21 | 0 | 3.2 | 8.0 | 0.00 | 0.00 | 0.00 | 49 | 1022.1 |
| 20260902104605 | 20 | 329 | 1.6 | 8.0 | 0.00 | 0.00 | 0.00 | 49 | 1022.2 |
| 20260902103105 | 21 | 76 | 4.8 | 9.7 | 0.00 | 0.00 | 0.00 | 46 | 1022.4 |
| 20260902101604 | 21 | 44 | 6.4 | 12.9 | 0.00 | 0.00 | 0.00 | 47 | 1022.5 |
| 20260902100053 | 20 | 121 | 1.6 | 8.0 | 0.00 | 0.00 | 0.00 | 48 | 1022.7 |
| 20260902094552 | 20 | 0 | 0.0 | 6.4 | 0.00 | 0.00 | 0.00 | 49 | 1022.8 |
| 20260902093057 | 20 | 249 | 0.0 | 6.4 | 0.00 | 0.00 | 0.00 | 53 | 1023.0 |
| 20260902091552 | 20 | 266 | 1.6 | 11.3 | 0.00 | 0.00 | 0.00 | 51 | 1022.8 |
| 20260902090052 | 19 | 0 | 1.6 | 6.4 | 0.00 | 0.00 | 0.00 | 53 | 1023.0 |
| 20260902084554 | 20 | 331 | 3.2 | 6.4 | 0.00 | 0.00 | 0.00 | 54 | 1023.0 |
| 20260902083055 | 18 | 313 | 4.8 | 11.3 | 0.00 | 0.00 | 0.00 | 61 | 1022.9 |
| 20260902081555 | 18 | 13 | 1.6 | 4.8 | 0.00 | 0.00 | 0.00 | 62 | 1023.1 |
| 20260902080050 | 17 | 316 | 3.2 | 6.4 | 0.00 | 0.00 | 0.00 | 63 | 1023.0 |
| 20260902074558 | 17 | 44 | 3.2 | 6.4 | 0.00 | 0.00 | 0.00 | 62 | 1023.1 |
| 20260902073047 | 17 | 0 | 0.0 | 4.8 | 0.00 | 0.00 | 0.00 | 62 | 1023.0 |
| 20260902071552 | 17 | 0 | 0.0 | 4.8 | 0.00 | 0.00 | 0.00 | 65 | 1022.9 |
| 20260902070055 | 17 | 0 | 0.0 | 6.4 | 0.00 | 0.00 | 0.00 | 66 | 1022.9 |
| 20260902064557 | 16 | 86 | 0.0 | 6.4 | 0.00 | 0.00 | 0.00 | 68 | 1022.6 |
| 20260902063107 | 15 | 69 | 3.2 | 4.8 | 0.00 | 0.00 | 0.00 | 71 | 1022.7 |
| 20260902061609 | 14 | 281 | 1.6 | 4.8 | 0.00 | 0.00 | 0.00 | 76 | 1022.6 |
| 20260902060052 | 13 | 277 | 1.6 | 4.8 | 0.00 | 0.00 | 0.00 | 84 | 1022.8 |
| 20260902054553 | 11 | 0 | 0.0 | 3.2 | 0.00 | 0.00 | 0.00 | 88 | 1022.8 |
| 20260902053105 | 9 | 284 | 3.2 | 4.8 | 0.00 | 0.00 | 0.00 | 88 | 1022.8 |
| 20260902051606 | 8 | 0 | 1.6 | 4.8 | 0.00 | 0.00 | 0.00 | 89 | 1022.7 |
| 20260902050052 | 8 | 0 | 0.0 | 3.2 | 0.00 | 0.00 | 0.00 | 90 | 1022.7 |
| 20260902044606 | 6 | 0 | 0.0 | 1.6 | 0.00 | 0.00 | 0.00 | 90 | 1022.5 |
| 20260902043103 | 5 | 284 | 1.6 | 3.2 | 0.00 | 0.00 | 0.00 | 89 | 1022.4 |
| 20260902041555 | 5 | 0 | 0.0 | 0.0 | 0.00 | 0.00 | 0.00 | 89 | 1022.5 |
| 20260902040054 | 5 | 0 | 0.0 | 3.2 | 0.00 | 0.00 | 0.00 | 88 | 1022.4 |
| 20260902034603 | 5 | 0 | 0.0 | 1.6 | 0.00 | 0.00 | 0.00 | 88 | 1022.6 |
| 20260902033056 | 5 | 0 | 0.0 | 0.0 | 0.00 | 0.00 | 0.00 | 89 | 1022.5 |